Temperatura - Umidità - Pioggia orarie del 29-03-2020

Dati orari da stazione meteo del 29-03-2020

Nome Stazione Data Ora Temperatura [°C] Umidità [%] Pioggia [mm] Pressione[hPa]
Sant'Anna di Vinadio 28-03-2020 01:00 -2.7 104 0 1013.3
Sant'Anna di Vinadio 28-03-2020 01:10 -2.8 104 0 1013.3
Sant'Anna di Vinadio 28-03-2020 01:20 -2.7 104 0.1 1013.3
Sant'Anna di Vinadio 28-03-2020 01:30 -2.7 104 0 1013.3
Sant'Anna di Vinadio 28-03-2020 01:40 -2.7 104 0 1013.3
Sant'Anna di Vinadio 28-03-2020 01:50 -2.7 104 0 1013.3
Sant'Anna di Vinadio 28-03-2020 02:00 -2.7 104 0 1013.2
Sant'Anna di Vinadio 28-03-2020 02:10 -2.7 104 0 1013.2
Sant'Anna di Vinadio 28-03-2020 02:20 -2.7 104 0 1013.2
Sant'Anna di Vinadio 28-03-2020 02:30 -2.7 104 0 1013.2
Sant'Anna di Vinadio 28-03-2020 02:40 -2.7 104 0 1013.2
Sant'Anna di Vinadio 28-03-2020 02:50 -2.8 104 0 1013.1
Sant'Anna di Vinadio 28-03-2020 03:00 -2.8 104 0 1013
Sant'Anna di Vinadio 28-03-2020 03:10 -2.8 104 0 1012.9
Sant'Anna di Vinadio 28-03-2020 03:20 -2.8 104 0 1012.9
Sant'Anna di Vinadio 28-03-2020 03:30 -2.8 104 0 1012.8
Sant'Anna di Vinadio 28-03-2020 03:40 -2.8 104 0 1012.8
Sant'Anna di Vinadio 28-03-2020 03:50 -2.8 104 0 1012.8
Sant'Anna di Vinadio 28-03-2020 04:00 -2.8 104 0 1012.7
Sant'Anna di Vinadio 28-03-2020 04:10 -2.8 104 0 1012.7
Sant'Anna di Vinadio 28-03-2020 04:20 -2.9 104 0 1012.7
Sant'Anna di Vinadio 28-03-2020 04:30 -3 100 0 1012.7
Sant'Anna di Vinadio 28-03-2020 04:40 -3 100 0 1012.7
Sant'Anna di Vinadio 28-03-2020 04:50 -2.8 100 0 1012.7
Sant'Anna di Vinadio 28-03-2020 05:00 -2.8 104 0 1012.7
Sant'Anna di Vinadio 28-03-2020 05:10 -2.7 104 0 1012.7
Sant'Anna di Vinadio 28-03-2020 05:20 -2.6 104 0 1012.7
Sant'Anna di Vinadio 28-03-2020 05:30 -2.6 104 0 1012.7
Sant'Anna di Vinadio 28-03-2020 05:40 -2.6 104 0 1012.7
Sant'Anna di Vinadio 28-03-2020 05:50 -2.6 104 0 1012.7
Sant'Anna di Vinadio 28-03-2020 06:00 -2.6 104 0 1012.8
Sant'Anna di Vinadio 28-03-2020 06:10 -2.5 104 0 1012.7
Sant'Anna di Vinadio 28-03-2020 06:20 -2.5 104 0 1012.8
Sant'Anna di Vinadio 28-03-2020 06:30 -2.3 104 0 1012.8
Sant'Anna di Vinadio 28-03-2020 06:40 -2.3 104 0 1012.9
Sant'Anna di Vinadio 28-03-2020 06:50 -2.3 104 0 1012.9
Sant'Anna di Vinadio 28-03-2020 07:00 -2.3 104 0 1013.1
Sant'Anna di Vinadio 28-03-2020 07:10 -2.2 104 0 1013.1
Sant'Anna di Vinadio 28-03-2020 07:20 -2.1 104 0 1013.1
Sant'Anna di Vinadio 28-03-2020 07:30 -2 104 0 1013.1
Sant'Anna di Vinadio 28-03-2020 07:40 -1.9 104 0 1013.1
Sant'Anna di Vinadio 28-03-2020 07:50 -1.8 104 0 1013.1
Sant'Anna di Vinadio 28-03-2020 08:00 -1.6 104 0 1013.1
Sant'Anna di Vinadio 28-03-2020 08:10 -1.4 104 0 1013.1
Sant'Anna di Vinadio 28-03-2020 08:20 -1.4 104 0 1013.1
Sant'Anna di Vinadio 28-03-2020 08:30 -1.2 104 0 1013.1
Sant'Anna di Vinadio 28-03-2020 08:40 -1.1 104 0 1013.2
Sant'Anna di Vinadio 28-03-2020 08:50 -0.9 104 0 1013.2
Sant'Anna di Vinadio 28-03-2020 09:00 -0.6 104 0.1 1013.2
Sant'Anna di Vinadio 28-03-2020 09:10 -0.3 104 0 1013.2
Sant'Anna di Vinadio 28-03-2020 09:20 0 104 0 1013.2
Sant'Anna di Vinadio 28-03-2020 09:30 0.2 104 0 1013.2
Sant'Anna di Vinadio 28-03-2020 09:40 0.2 104 0 1013.3
Sant'Anna di Vinadio 28-03-2020 09:50 0.4 104 0 1013.3
Sant'Anna di Vinadio 28-03-2020 10:00 0.7 104 0 1013.2
Sant'Anna di Vinadio 28-03-2020 10:10 1 104 0.1 1013.2
Sant'Anna di Vinadio 28-03-2020 10:20 1.3 96 0 1013.2
Sant'Anna di Vinadio 28-03-2020 10:30 1.5 92 0 1013.2
Sant'Anna di Vinadio 28-03-2020 10:40 1.4 94 0 1013.2
Sant'Anna di Vinadio 28-03-2020 10:50 1 98 0 1013.2
Sant'Anna di Vinadio 28-03-2020 11:00 0.9 98 0 1013.2
Sant'Anna di Vinadio 28-03-2020 11:10 0.9 99 0 1013.2
Sant'Anna di Vinadio 28-03-2020 11:20 0.9 99 0 1013.2
Sant'Anna di Vinadio 28-03-2020 11:30 1.3 99 0 1013.2
Sant'Anna di Vinadio 28-03-2020 11:40 1.6 95 0 1013.2
Sant'Anna di Vinadio 28-03-2020 11:50 1.6 93 0.1 1013.2
Sant'Anna di Vinadio 28-03-2020 12:00 1.7 92 0 1013.1
Sant'Anna di Vinadio 28-03-2020 12:10 1.8 93 0 1013.2
Sant'Anna di Vinadio 28-03-2020 12:20 1.9 93 0 1013.2
Sant'Anna di Vinadio 28-03-2020 12:30 2 92 0 1013.2
Sant'Anna di Vinadio 28-03-2020 12:40 2.2 89 0 1013.2
Sant'Anna di Vinadio 28-03-2020 12:50 2.4 87 0 1013.2
Sant'Anna di Vinadio 28-03-2020 13:00 2.7 81 0 1013.2
Sant'Anna di Vinadio 28-03-2020 13:10 3.3 77 0.1 1013.1
Sant'Anna di Vinadio 28-03-2020 13:20 3.1 77 0 1013.1
Sant'Anna di Vinadio 28-03-2020 13:30 3.2 78 0 1013
Sant'Anna di Vinadio 28-03-2020 13:40 3.2 77 0 1013
Sant'Anna di Vinadio 28-03-2020 13:50 3.5 78 0 1012.9
Sant'Anna di Vinadio 28-03-2020 14:00 3.4 74 0 1012.9
Sant'Anna di Vinadio 28-03-2020 14:10 3.5 70 0 1012.9
Sant'Anna di Vinadio 28-03-2020 14:20 3.8 62 0 1012.8
Sant'Anna di Vinadio 28-03-2020 14:30 3.9 56 0 1012.8
Sant'Anna di Vinadio 28-03-2020 14:40 3.9 54 0 1012.7
Sant'Anna di Vinadio 28-03-2020 14:50 4.3 54 0 1012.8
Sant'Anna di Vinadio 28-03-2020 15:00 4.4 52 0 1012.7
Sant'Anna di Vinadio 28-03-2020 15:10 4.3 51 0 1012.6
Sant'Anna di Vinadio 28-03-2020 15:20 4.2 51 0 1012.5
Sant'Anna di Vinadio 28-03-2020 15:30 4.2 52 0 1012.5
Sant'Anna di Vinadio 28-03-2020 15:40 3.7 53 0 1012.5
Sant'Anna di Vinadio 28-03-2020 15:50 3.5 53 0 1012.5
Sant'Anna di Vinadio 28-03-2020 16:00 3.7 53 0 1012.6
Sant'Anna di Vinadio 28-03-2020 16:10 3.7 54 0 1012.5
Sant'Anna di Vinadio 28-03-2020 16:20 3.3 55 0 1012.5
Sant'Anna di Vinadio 28-03-2020 16:30 3.4 54 0 1012.5
Sant'Anna di Vinadio 28-03-2020 16:40 3.4 55 0 1012.5
Sant'Anna di Vinadio 28-03-2020 16:50 3 56 0 1012.4
Sant'Anna di Vinadio 28-03-2020 17:00 2.8 56 0 1012.4
Sant'Anna di Vinadio 28-03-2020 17:10 2.8 57 0 1012.4
Sant'Anna di Vinadio 28-03-2020 17:20 2.7 57 0 1012.4
Sant'Anna di Vinadio 28-03-2020 17:30 2.7 57 0 1012.5
Sant'Anna di Vinadio 28-03-2020 17:40 2.7 58 0 1012.5
Sant'Anna di Vinadio 28-03-2020 17:50 2.6 58 0 1012.5
Sant'Anna di Vinadio 28-03-2020 18:00 2.5 59 0 1012.6
Sant'Anna di Vinadio 28-03-2020 18:10 2.3 59 0 1012.5
Sant'Anna di Vinadio 28-03-2020 18:20 2.2 60 0 1012.6
Sant'Anna di Vinadio 28-03-2020 18:30 2.1 60 0 1012.6
Sant'Anna di Vinadio 28-03-2020 18:40 2 60 0 1012.6
Sant'Anna di Vinadio 28-03-2020 18:50 2 61 0 1012.7
Sant'Anna di Vinadio 28-03-2020 19:00 2 61 0 1012.7
Sant'Anna di Vinadio 28-03-2020 19:10 1.9 60 0 1012.8
Sant'Anna di Vinadio 28-03-2020 19:20 1.8 61 0 1012.8
Sant'Anna di Vinadio 28-03-2020 19:30 1.7 60 0 1012.9
Sant'Anna di Vinadio 28-03-2020 19:40 1.5 61 0 1012.9
Sant'Anna di Vinadio 28-03-2020 19:50 1.4 62 0 1013
Sant'Anna di Vinadio 28-03-2020 20:00 1.3 64 0 1013
Sant'Anna di Vinadio 28-03-2020 20:10 1.4 64 0 1013.1
Sant'Anna di Vinadio 28-03-2020 20:20 1.4 64 0 1013.1
Sant'Anna di Vinadio 28-03-2020 20:30 1.3 64 0 1013.2
Sant'Anna di Vinadio 28-03-2020 20:40 1.2 64 0 1013.3
Sant'Anna di Vinadio 28-03-2020 20:50 1.1 63 0 1013.3
Sant'Anna di Vinadio 28-03-2020 21:00 1.2 63 0 1013.3
Sant'Anna di Vinadio 28-03-2020 21:10 1.3 62 0 1013.3
Sant'Anna di Vinadio 28-03-2020 21:20 1.3 60 0 1013.4
Sant'Anna di Vinadio 28-03-2020 21:30 1.1 61 0 1013.4
Sant'Anna di Vinadio 28-03-2020 21:40 1.1 59 0 1013.4
Sant'Anna di Vinadio 28-03-2020 21:50 1.5 58 0 1013.4
Sant'Anna di Vinadio 28-03-2020 22:00 1.7 56 0 1013.3
Sant'Anna di Vinadio 28-03-2020 22:10 1.8 55 0 1013.3
Sant'Anna di Vinadio 28-03-2020 22:20 1.8 54 0 1013.3
Sant'Anna di Vinadio 28-03-2020 22:30 1.7 54 0 1013.3
Sant'Anna di Vinadio 28-03-2020 22:40 1.6 54 0 1013.3
Sant'Anna di Vinadio 28-03-2020 22:50 1.8 54 0 1013.4
Sant'Anna di Vinadio 28-03-2020 23:00 1.7 52 0 1013.4
Sant'Anna di Vinadio 28-03-2020 23:10 1.6 52 0 1013.4
Sant'Anna di Vinadio 28-03-2020 23:20 1.4 54 0 1013.3
Sant'Anna di Vinadio 28-03-2020 23:30 1 55 0 1013.3
Sant'Anna di Vinadio 28-03-2020 23:40 1 55 0 1013.3
Sant'Anna di Vinadio 28-03-2020 23:50 1 54 0 1013.3
Sant'Anna di Vinadio 29-03-2020 00:00 1.5 53 0 1013.3
Sant'Anna di Vinadio 29-03-2020 00:10 1.9 52 0 1013.3
Sant'Anna di Vinadio 29-03-2020 00:20 1.6 52 0 1013.3
Sant'Anna di Vinadio 29-03-2020 00:30 1.1 52 0 1013.3
Sant'Anna di Vinadio 29-03-2020 00:40 1.3 51 0 1013.3
Sant'Anna di Vinadio 29-03-2020 00:50 1.3 51 0 1013.3
Sant'Anna di Vinadio 29-03-2020 01:00 0.7 52 0 1013.3
Sant'Anna di Vinadio 29-03-2020 01:10 0.9 52 0 1013.3
Sant'Anna di Vinadio 29-03-2020 01:20 0.8 52 0 1013.3
Sant'Anna di Vinadio 29-03-2020 01:30 0.6 51 0 1013.2
Sant'Anna di Vinadio 29-03-2020 01:40 0.6 51 0 1013.1
Sant'Anna di Vinadio 29-03-2020 01:50 0.7 52 0 1013
Sant'Anna di Vinadio 29-03-2020 03:00 0.7 50 0 1013
Sant'Anna di Vinadio 29-03-2020 03:10 0.8 50 0 1012.9
Sant'Anna di Vinadio 29-03-2020 03:20 0.9 48 0 1012.9
Sant'Anna di Vinadio 29-03-2020 03:30 0.9 47 0 1012.8
Sant'Anna di Vinadio 29-03-2020 03:40 0.8 47 0 1012.8
Sant'Anna di Vinadio 29-03-2020 03:50 0.7 47 0 1012.7
Sant'Anna di Vinadio 29-03-2020 05:00 0.8 46 0 1012.2

Riassuntivo giornaliero del 29-03-2020